EW1549 Weather Reports


time (UTC)temp
C
wind
direction
speed
KPH
gust
KPH
rain 1hr
cm
rain 24hr
cm
rain mn
cm
humidity
%
barometer
mb
20260831121506 -17 41 12.9 30.6 0.00 0.00 0.00 1018.1
20260831120001 -17 69 16.1 30.6 0.00 0.00 0.00 1018.2
20260831114558 -17 41 14.5 22.5 0.00 0.00 0.00 1018.3
20260831113102 -17 41 12.9 25.7 0.00 0.00 0.00 1018.3
20260831111548 -17 46 11.3 24.1 0.00 0.00 0.00 1018.4
20260831110044 -17 46 16.1 25.7 0.00 0.00 0.00 1018.5
20260831104550 -17 51 1.6 20.9 0.00 0.00 0.00 1018.5
20260831103038 -17 7 8.0 25.7 0.00 0.00 0.00 1018.4
20260831101544 -17 36 12.9 25.7 0.00 0.00 0.00 1018.3
20260831100037 -17 36 9.7 22.5 0.00 0.00 0.00 1018.4
20260831094540 -17 4 6.4 20.9 0.00 0.00 0.00 1018.5
20260831093031 -17 221 0.0 4.8 0.00 0.00 0.00 1018.4
20260831091540 -17 250 3.2 6.4 0.00 0.00 0.00 1018.3
20260831090027 -17 300 0.0 0.0 0.00 0.00 0.00 1018.2
20260831084606 -17 300 0.0 4.8 0.00 0.00 0.00 1018.1
20260831083023 -17 300 1.6 9.7 0.00 0.00 0.00 1017.9
20260831081519 -17 279 0.0 0.0 0.00 0.00 0.00 1018.1
20260831080033 -17 243 0.0 6.4 0.00 0.00 0.00 1018.0
20260831074521 -17 263 3.2 9.7 0.00 0.00 0.00 1017.8
20260831073005 -17 236 0.0 0.0 0.00 0.00 0.00 1017.6
20260831071502 -17 236 3.2 8.0 0.00 0.00 0.00 1017.4
20260831070057 -17 236 0.0 6.4 0.00 0.00 0.00 1017.3
20260831064556 -17 236 0.0 4.8 0.00 0.00 0.00 1017.3
20260831063103 -17 236 3.2 6.4 0.00 0.00 0.00 1017.3
20260831061544 -17 236 0.0 6.4 0.00 0.00 0.00 1017.3
20260831060040 -17 236 0.0 6.4 0.00 0.00 0.00 1017.2
20260831054534 -17 236 0.0 6.4 0.00 0.00 0.00 1017.2
20260831053030 -17 236 3.2 8.0 0.00 0.00 0.00 1017.3
20260831051559 -17 236 1.6 4.8 0.00 0.00 0.00 1017.4
20260831050054 -17 236 4.8 9.7 0.00 0.00 0.00 1017.4
20260831044548 -17 263 0.0 8.0 0.00 0.00 0.00 1017.4
20260831043049 -17 220 3.2 6.4 0.00 0.00 0.00 1017.4
20260831041548 -17 41 6.4 17.7 0.00 0.00 0.00 1017.5
20260831040040 -17 130 0.0 14.5 0.00 0.00 0.00 1017.7
20260831034529 -17 356 0.0 6.4 0.00 0.00 0.00 1017.8
20260831033025 -17 60 3.2 14.5 0.00 0.00 0.00 1017.9
20260831031520 -17 211 0.0 0.0 0.00 0.00 0.00 1018.1
20260831030016 -17 212 0.0 8.0 0.00 0.00 0.00 1018.1
20260831024512 -17 213 4.8 9.7 0.00 0.00 0.00 1018.1
20260831023008 -17 223 0.0 0.0 0.00 0.00 0.00 1018.2
20260831021503 -17 223 0.0 6.4 0.00 0.00 0.00 1018.0
20260831020059 -17 223 0.0 0.0 0.00 0.00 0.00 1018.2
20260831014556 -17 223 0.0 4.8 0.00 0.00 0.00 1018.4
20260831013050 -17 223 0.0 6.4 0.00 0.00 0.00 1018.6
20260831011552 -17 223 0.0 0.0 0.00 0.00 0.00 1018.6
20260831010041 -17 223 0.0 0.0 0.00 0.00 0.00 1018.8
20260831004539 -17 223 0.0 0.0 0.00 0.00 0.00 1018.8
20260831003033 -17 223 0.0 6.4 0.00 0.00 0.00 1019.0
20260831001527 -17 223 0.0 4.8 0.00 0.00 0.00 1019.1
20260831000023 -17 223 0.0 0.0 0.00 0.00 0.00 1018.8
20260830234517 -17 223 0.0 0.0 0.00 0.00 0.00 1018.7
20260830233019 -17 223 0.0 0.0 0.00 0.00 0.00 1018.8
20260830231516 -17 223 0.0 8.0 0.00 0.00 0.00 1018.7
20260830230008 -17 142 6.4 11.3 0.00 0.00 0.00 1019.0
20260830224509 -17 192 0.0 6.4 0.00 0.00 0.00 1019.2
20260830223007 -17 268 1.6 4.8 0.00 0.00 0.00 1019.0
20260830221509 -17 270 0.0 4.8 0.00 0.00 0.00 1018.9
20260830220006 -17 270 4.8 6.4 0.00 0.00 0.00 1018.9
20260830214506 -17 329 0.0 8.0 0.00 0.00 0.00 1018.8
20260830213006 -17 46 0.0 0.0 0.00 0.00 0.00 1018.7
20260830211505 -17 46 4.8 14.5 0.00 0.00 0.00 1018.5
20260830210003 -17 30 0.0 14.5 0.00 0.00 0.00 1018.3
20260830204559 -17 12 4.8 12.9 0.00 0.00 0.00 1018.1
20260830203054 22 341 0.0 4.8 0.00 0.00 0.00 72 1018.0
20260830201554 -17 12 8.0 16.1 0.00 0.00 0.00 1017.9
20260830200052 -17 41 8.0 20.9 0.00 0.00 0.00 1017.8
20260830194600 -17 54 11.3 25.7 0.00 0.00 0.00 1017.6
20260830193040 -17 80 9.7 24.1 0.00 0.00 0.00 1017.6
20260830191541 -17 103 11.3 22.5 0.00 0.00 0.00 1017.6
20260830190038 -17 60 4.8 20.9 0.00 0.00 0.00 1017.5
20260830184533 -17 57 8.0 20.9 0.00 0.00 0.00 1017.4
20260830183034 -17 55 11.3 20.9 0.00 0.00 0.00 1017.3
20260830181524 -17 100 6.4 29.0 0.00 0.00 0.00 1017.3
20260830180030 -17 65 4.8 25.7 0.00 0.00 0.00 1017.3
20260830174518 -17 87 16.1 27.4 0.00 0.00 0.00 1017.2
20260830173008 -17 80 12.9 30.6 0.00 0.00 0.00 1017.2
20260830171513 -17 65 19.3 32.2 0.00 0.00 0.00 1017.1
20260830170100 -17 77 11.3 27.4 0.00 0.00 0.00 1017.0
20260830164557 -17 85 14.5 24.1 0.00 0.00 0.00 1017.0
20260830163059 -17 84 9.7 25.7 0.00 0.00 0.00 1017.1
20260830161551 -17 61 12.9 20.9 0.00 0.00 0.00 1017.2
20260830160057 -17 73 12.9 24.1 0.00 0.00 0.00 1017.1
20260830154542 -17 46 17.7 27.4 0.00 0.00 0.00 1016.8
20260830153041 -17 41 14.5 27.4 0.00 0.00 0.00 1017.0
20260830151545 -17 41 14.5 24.1 0.00 0.00 0.00 1017.2
20260830150040 -17 76 12.9 25.7 0.00 0.00 0.00 1017.3
20260830144539 -17 41 12.9 29.0 0.00 0.00 0.00 1017.5
20260830143046 -17 63 17.7 25.7 0.00 0.00 0.00 1017.6
20260830141540 -17 72 11.3 35.4 0.00 0.00 0.00 1017.8
20260830140044 -17 41 8.0 30.6 0.00 0.00 0.00 1018.0
20260830134551 -17 50 8.0 30.6 0.00 0.00 0.00 1018.0
20260830133041 -17 67 14.5 30.6 0.00 0.00 0.00 1018.1
20260830131544 -17 25 17.7 29.0 0.00 0.00 0.00 1018.3
20260830130054 -17 41 19.3 27.4 0.00 0.00 0.00 1018.5
20260830124541 -17 41 9.7 29.0 0.00 0.00 0.00 1018.9
20260830123044 -17 36 16.1 27.4 0.00 0.00 0.00 1019.0